Time,TemperatureF,DewpointF,PressureIn,WindDirection,WindDirectionDegrees,WindSpeedMPH,WindSpeedGustMPH,Humidity,HourlyPrecipIn,Conditions,Clouds,dailyrainin,SoftwareType,DateUTC
2013-03-12 00:02:00,26.0,24.0,-100.00,WNW,300,7.0,11.0,95,0.00,,,-99.99,,2013-03-12 05:02:00,
2013-03-12 00:12:00,26.0,24.0,-100.00,NW,320,4.0,12.0,95,0.00,,,-99.99,,2013-03-12 05:12:00,
2013-03-12 00:22:00,26.0,24.0,-100.00,NW,310,5.0,9.0,95,0.00,,,-99.99,,2013-03-12 05:22:00,
2013-03-12 00:32:00,26.0,24.0,-100.00,NW,305,7.0,10.0,95,0.00,,,-99.99,,2013-03-12 05:32:00,
2013-03-12 00:42:00,26.0,24.0,-100.00,WNW,295,8.0,12.0,95,0.00,,,-99.99,,2013-03-12 05:42:00,
2013-03-12 00:52:00,26.0,25.0,-100.00,WNW,285,7.0,11.0,95,0.00,,,-99.99,,2013-03-12 05:52:00,
2013-03-12 01:02:00,26.0,25.0,-100.00,WNW,285,7.0,11.0,95,0.00,,,-99.99,,2013-03-12 06:02:00,
2013-03-12 01:12:00,26.0,25.0,-100.00,WNW,285,9.0,13.0,95,0.00,,,-99.99,,2013-03-12 06:12:00,
2013-03-12 01:22:00,26.0,25.0,-100.00,WNW,290,9.0,12.0,95,0.00,,,-99.99,,2013-03-12 06:22:00,
2013-03-12 01:32:00,26.0,25.0,-100.00,WNW,300,7.0,12.0,95,0.00,,,-99.99,,2013-03-12 06:32:00,
2013-03-12 01:42:00,26.0,25.0,-100.00,WNW,300,7.0,12.0,95,0.00,,,-99.99,,2013-03-12 06:42:00,
2013-03-12 01:52:00,26.0,25.0,-100.00,WNW,290,5.0,10.0,95,0.00,,,-99.99,,2013-03-12 06:52:00,
2013-03-12 02:02:00,26.0,25.0,-100.00,WNW,290,5.0,10.0,95,0.00,,,-99.99,,2013-03-12 07:02:00,
2013-03-12 02:12:00,26.0,24.0,-100.00,NW,315,2.0,4.0,95,0.00,,,-99.99,,2013-03-12 07:12:00,
2013-03-12 02:22:00,25.0,24.0,-100.00,WNW,300,2.0,4.0,95,0.00,,,-99.99,,2013-03-12 07:22:00,
2013-03-12 02:32:00,25.0,24.0,-100.00,NW,310,4.0,6.0,95,0.00,,,-99.99,,2013-03-12 07:32:00,
2013-03-12 02:42:00,26.0,24.0,-100.00,WNW,300,6.0,11.0,95,0.00,,,-99.99,,2013-03-12 07:42:00,
2013-03-12 02:52:00,26.0,25.0,-100.00,NW,305,4.0,10.0,95,0.00,,,-99.99,,2013-03-12 07:52:00,
2013-03-12 03:02:00,26.0,25.0,-100.00,NW,305,4.0,10.0,95,0.00,,,-99.99,,2013-03-12 08:02:00,
2013-03-12 03:12:00,25.0,24.0,-100.00,NNW,335,3.0,8.0,95,0.00,,,-99.99,,2013-03-12 08:12:00,
2013-03-12 03:22:00,25.0,24.0,-100.00,NW,325,4.0,7.0,95,0.00,,,-99.99,,2013-03-12 08:22:00,
2013-03-12 03:33:00,25.0,24.0,-100.00,NNW,340,3.0,7.0,95,0.00,,,-99.99,,2013-03-12 08:33:00,
2013-03-12 03:42:00,25.0,24.0,-100.00,NW,310,3.0,7.0,95,0.00,,,-99.99,,2013-03-12 08:42:00,
2013-03-12 03:52:00,25.0,24.0,-100.00,WNW,295,4.0,8.0,95,0.00,,,-99.99,,2013-03-12 08:52:00,
2013-03-12 04:03:00,25.0,24.0,-100.00,WNW,295,4.0,8.0,95,0.00,,,-99.99,,2013-03-12 09:03:00,
2013-03-12 04:12:00,25.0,24.0,-100.00,NW,315,2.0,4.0,95,0.00,,,-99.99,,2013-03-12 09:12:00,
2013-03-12 04:22:00,25.0,24.0,-100.00,NW,315,2.0,5.0,95,0.00,,,-99.99,,2013-03-12 09:22:00,
2013-03-12 04:32:00,25.0,24.0,-100.00,WNW,300,6.0,7.0,95,0.00,,,-99.99,,2013-03-12 09:32:00,
2013-03-12 04:42:00,25.0,24.0,-100.00,WNW,295,7.0,10.0,95,0.00,,,-99.99,,2013-03-12 09:42:00,
2013-03-12 04:52:00,26.0,24.0,-100.00,NW,305,11.0,16.0,92,0.00,,,-99.99,,2013-03-12 09:52:00,
2013-03-12 05:02:00,26.0,24.0,-100.00,NW,305,11.0,16.0,92,0.00,,,-99.99,,2013-03-12 10:02:00,
2013-03-12 05:12:00,26.0,24.0,-100.00,NW,305,10.0,14.0,93,0.00,,,-99.99,,2013-03-12 10:12:00,
2013-03-12 05:22:00,26.0,24.0,-100.00,NW,305,9.0,14.0,93,0.00,,,-99.99,,2013-03-12 10:22:00,
2013-03-12 05:32:00,26.0,24.0,-100.00,NW,305,8.0,14.0,94,0.00,,,-99.99,,2013-03-12 10:32:00,
2013-03-12 05:42:00,25.0,24.0,-100.00,NW,310,6.0,12.0,95,0.00,,,-99.99,,2013-03-12 10:42:00,
2013-03-12 05:52:00,25.0,24.0,-100.00,NW,305,9.0,12.0,95,0.00,,,-99.99,,2013-03-12 10:52:00,
2013-03-12 06:02:00,25.0,24.0,-100.00,NW,305,9.0,12.0,95,0.00,,,-99.99,,2013-03-12 11:02:00,
2013-03-12 06:12:00,25.0,24.0,-100.00,NW,305,6.0,11.0,95,0.00,,,-99.99,,2013-03-12 11:12:00,
2013-03-12 06:22:00,25.0,23.0,-100.00,WNW,295,6.0,9.0,95,0.00,,,-99.99,,2013-03-12 11:22:00,
2013-03-12 06:32:00,25.0,23.0,-100.00,WNW,295,6.0,9.0,95,0.00,,,-99.99,,2013-03-12 11:32:00,
2013-03-12 06:42:00,25.0,23.0,-100.00,West,280,7.0,11.0,95,0.00,,,-99.99,,2013-03-12 11:42:00,
2013-03-12 06:52:00,24.0,23.0,-100.00,WNW,295,7.0,9.0,95,0.00,,,-99.99,,2013-03-12 11:52:00,
2013-03-12 07:02:00,24.0,23.0,-100.00,WNW,295,7.0,9.0,95,0.00,,,-99.99,,2013-03-12 12:02:00,
2013-03-12 07:12:00,25.0,24.0,-100.00,West,280,9.0,14.0,95,0.00,,,-99.99,,2013-03-12 12:12:00,
2013-03-12 07:22:00,25.0,24.0,-100.00,WNW,285,11.0,14.0,95,0.00,,,-99.99,,2013-03-12 12:22:00,
2013-03-12 07:32:00,25.0,24.0,-100.00,WNW,285,9.0,15.0,95,0.00,,,-99.99,,2013-03-12 12:32:00,
2013-03-12 07:42:00,24.0,23.0,-100.00,NW,305,6.0,13.0,95,0.00,,,-99.99,,2013-03-12 12:42:00,
2013-03-12 07:52:00,25.0,23.0,-100.00,WNW,295,7.0,11.0,95,0.00,,,-99.99,,2013-03-12 12:52:00,
2013-03-12 08:02:00,25.0,23.0,-100.00,WNW,295,7.0,11.0,95,0.00,,,-99.99,,2013-03-12 13:02:00,
2013-03-12 08:12:00,25.0,24.0,-100.00,NW,315,6.0,11.0,95,0.00,,,-99.99,,2013-03-12 13:12:00,
2013-03-12 08:22:00,25.0,24.0,-100.00,NW,305,6.0,8.0,95,0.00,,,-99.99,,2013-03-12 13:22:00,
2013-03-12 08:32:00,26.0,25.0,-100.00,WNW,290,9.0,12.0,95,0.00,,,-99.99,,2013-03-12 13:32:00,
2013-03-12 08:42:00,26.0,25.0,-100.00,WNW,300,9.0,11.0,95,0.00,,,-99.99,,2013-03-12 13:42:00,
2013-03-12 08:52:00,27.0,26.0,-100.00,West,280,9.0,12.0,95,0.00,,,-99.99,,2013-03-12 13:52:00,
2013-03-12 09:02:00,27.0,26.0,-100.00,West,280,9.0,12.0,95,0.00,,,-99.99,,2013-03-12 14:02:00,
2013-03-12 09:12:00,28.0,27.0,-100.00,WNW,300,7.0,16.0,95,0.00,,,-99.99,,2013-03-12 14:12:00,
2013-03-12 09:22:00,28.0,27.0,-100.00,West,260,6.0,12.0,95,0.00,,,-99.99,,2013-03-12 14:22:00,
2013-03-12 09:32:00,29.0,28.0,-100.00,West,280,7.0,15.0,95,0.03,,,-99.99,,2013-03-12 14:32:00,
2013-03-12 09:42:00,29.0,28.0,-100.00,West,280,7.0,15.0,95,0.03,,,-99.99,,2013-03-12 14:42:00,
2013-03-12 09:52:00,29.0,28.0,-100.00,WNW,285,12.0,14.0,95,0.03,,,-99.99,,2013-03-12 14:52:00,
2013-03-12 10:02:00,29.0,28.0,-100.00,WNW,285,12.0,14.0,95,0.03,,,-99.99,,2013-03-12 15:02:00,
2013-03-12 10:12:00,30.0,29.0,-100.00,West,265,11.0,14.0,95,0.00,,,-99.99,,2013-03-12 15:12:00,
2013-03-12 10:22:00,30.0,29.0,-100.00,WNW,285,11.0,16.0,95,0.00,,,-99.99,,2013-03-12 15:22:00,
2013-03-12 10:32:00,32.0,30.0,-100.00,WNW,290,12.0,19.0,93,0.08,,,-99.99,,2013-03-12 15:32:00,
2013-03-12 10:42:00,32.0,30.0,-100.00,WNW,290,12.0,19.0,93,0.08,,,-99.99,,2013-03-12 15:42:00,
2013-03-12 10:52:00,32.0,30.0,-100.00,WNW,290,17.0,23.0,93,0.00,,,-99.99,,2013-03-12 15:52:00,
2013-03-12 11:02:00,32.0,31.0,-100.00,WNW,300,11.0,21.0,94,0.07,,,-99.99,,2013-03-12 16:02:00,
2013-03-12 11:12:00,32.0,30.0,-100.00,NW,310,17.0,26.0,92,0.00,,,-99.99,,2013-03-12 16:12:00,
2013-03-12 11:22:00,33.0,31.0,-100.00,NW,305,12.0,19.0,93,0.07,,,-99.99,,2013-03-12 16:22:00,
2013-03-12 11:33:00,33.0,31.0,-100.00,NW,305,16.0,24.0,91,0.00,,,-99.99,,2013-03-12 16:33:00,
2013-03-12 11:42:00,33.0,31.0,-100.00,NW,305,16.0,24.0,91,0.00,,,-99.99,,2013-03-12 16:42:00,
2013-03-12 11:52:00,33.0,31.0,-100.00,NW,325,12.0,23.0,95,0.10,,,-99.99,,2013-03-12 16:52:00,
2013-03-12 12:02:00,33.0,31.0,-100.00,NW,325,12.0,23.0,95,0.10,,,-99.99,,2013-03-12 17:02:00,
2013-03-12 12:13:00,33.0,32.0,-100.00,NW,315,14.0,24.0,95,0.07,,,-99.99,,2013-03-12 17:13:00,
2013-03-12 12:22:00,34.0,32.0,-100.00,NW,305,16.0,26.0,92,0.08,,,-99.99,,2013-03-12 17:22:00,
2013-03-12 12:33:00,35.0,31.0,-100.00,NW,325,14.0,26.0,84,0.00,,,-99.99,,2013-03-12 17:33:00,
2013-03-12 12:43:00,35.0,31.0,-100.00,NW,325,14.0,26.0,84,0.00,,,-99.99,,2013-03-12 17:43:00,
2013-03-12 12:53:00,35.0,28.0,-100.00,NW,310,23.0,34.0,75,0.00,,,-99.99,,2013-03-12 17:53:00,
2013-03-12 13:02:00,35.0,28.0,-100.00,NW,310,23.0,34.0,75,0.00,,,-99.99,,2013-03-12 18:02:00,
2013-03-12 13:12:00,35.0,28.0,-100.00,NW,305,24.0,32.0,73,0.00,,,-99.99,,2013-03-12 18:12:00,
2013-03-12 13:22:00,35.0,28.0,-100.00,WNW,300,21.0,32.0,74,0.00,,,-99.99,,2013-03-12 18:22:00,
2013-03-12 13:33:00,35.0,28.0,-100.00,NW,320,21.0,31.0,74,0.00,,,-99.99,,2013-03-12 18:33:00,
2013-03-12 13:42:00,35.0,28.0,-100.00,NW,320,19.0,31.0,76,0.00,,,-99.99,,2013-03-12 18:42:00,
2013-03-12 13:53:00,34.0,29.0,-100.00,NW,305,19.0,32.0,80,0.00,,,-99.99,,2013-03-12 18:53:00,
2013-03-12 14:03:00,34.0,29.0,-100.00,NW,305,19.0,32.0,80,0.00,,,-99.99,,2013-03-12 19:03:00,
2013-03-12 14:13:00,34.0,29.0,-100.00,WNW,300,19.0,32.0,80,0.00,,,-99.99,,2013-03-12 19:13:00,
2013-03-12 14:22:00,34.0,28.0,-100.00,NW,305,19.0,27.0,79,0.00,,,-99.99,,2013-03-12 19:22:00,
2013-03-12 14:43:00,35.0,30.0,-100.00,NW,315,13.0,26.0,82,0.00,,,-99.99,,2013-03-12 19:43:00,
2013-03-12 14:52:00,34.0,28.0,-100.00,NW,305,21.0,33.0,79,0.00,,,-99.99,,2013-03-12 19:52:00,
2013-03-12 15:02:00,34.0,28.0,-100.00,NW,305,21.0,33.0,79,0.00,,,-99.99,,2013-03-12 20:02:00,
2013-03-12 15:12:00,35.0,28.0,-100.00,NW,320,16.0,32.0,78,0.00,,,-99.99,,2013-03-12 20:12:00,
2013-03-12 15:22:00,35.0,29.0,-100.00,NW,315,16.0,34.0,80,0.10,,,-99.99,,2013-03-12 20:22:00,
2013-03-12 15:32:00,35.0,29.0,-100.00,NW,320,21.0,34.0,79,0.07,,,-99.99,,2013-03-12 20:32:00,
2013-03-12 15:42:00,35.0,29.0,-100.00,NW,320,21.0,34.0,79,0.07,,,-99.99,,2013-03-12 20:42:00,
2013-03-12 15:52:00,34.0,29.0,-100.00,NW,325,23.0,34.0,81,0.08,,,-99.99,,2013-03-12 20:52:00,
2013-03-12 16:02:00,34.0,29.0,-100.00,NW,325,23.0,34.0,81,0.08,,,-99.99,,2013-03-12 21:02:00,
2013-03-12 16:12:00,33.0,30.0,-100.00,NW,310,21.0,27.0,88,0.08,,,-99.99,,2013-03-12 21:12:00,
2013-03-12 16:22:00,33.0,31.0,-100.00,NNW,335,14.0,31.0,88,0.07,,,-99.99,,2013-03-12 21:22:00,
2013-03-12 16:32:00,34.0,29.0,-100.00,NW,320,19.0,27.0,81,0.00,,,-99.99,,2013-03-12 21:32:00,
2013-03-12 16:42:00,33.0,28.0,-100.00,NW,320,20.0,30.0,81,0.04,,,-99.99,,2013-03-12 21:42:00,
2013-03-12 16:52:00,32.0,29.0,-100.00,NW,320,19.0,34.0,89,0.07,,,-99.99,,2013-03-12 21:52:00,
2013-03-12 17:02:00,32.0,29.0,-100.00,NW,320,19.0,34.0,89,0.07,,,-99.99,,2013-03-12 22:02:00,
2013-03-12 17:12:00,29.0,28.0,-100.00,NNW,340,19.0,35.0,95,0.01,,,-99.99,,2013-03-12 22:12:00,
2013-03-12 17:22:00,30.0,29.0,-100.00,NNW,335,15.0,24.0,95,0.03,,,-99.99,,2013-03-12 22:22:00,
2013-03-12 17:33:00,30.0,29.0,-100.00,NNW,330,10.0,23.0,95,0.01,,,-99.99,,2013-03-12 22:33:00,
2013-03-12 17:42:00,30.0,28.0,-100.00,NW,325,19.0,26.0,95,0.00,,,-99.99,,2013-03-12 22:42:00,
2013-03-12 17:52:00,30.0,29.0,-100.00,NNW,335,12.0,26.0,95,0.01,,,-99.99,,2013-03-12 22:52:00,
2013-03-12 18:02:00,29.0,28.0,-100.00,NW,320,16.0,22.0,95,0.04,,,-99.99,,2013-03-12 23:02:00,
2013-03-12 18:12:00,29.0,26.0,-100.00,NW,325,18.0,30.0,86,0.08,,,-99.99,,2013-03-12 23:12:00,
2013-03-12 18:22:00,29.0,25.0,-100.00,NNW,335,19.0,30.0,83,0.00,,,-99.99,,2013-03-12 23:22:00,
2013-03-12 18:34:00,29.0,23.0,-100.00,NNW,345,11.0,29.0,78,0.00,,,-99.99,,2013-03-12 23:34:00,
2013-03-12 18:43:00,29.0,23.0,-100.00,NNW,345,11.0,29.0,78,0.00,,,-99.99,,2013-03-12 23:43:00,
2013-03-12 18:52:00,29.0,21.0,-100.00,NNW,330,15.0,28.0,72,0.00,,,-99.99,,2013-03-12 23:52:00,
2013-03-12 19:02:00,29.0,20.0,-100.00,NNW,340,18.0,31.0,68,0.00,,,-99.99,,2013-03-13 00:02:00,
2013-03-12 19:12:00,29.0,20.0,-100.00,NNW,335,16.0,27.0,69,0.00,,,-99.99,,2013-03-13 00:12:00,
2013-03-12 19:22:00,28.0,20.0,-100.00,NNW,335,17.0,26.0,71,0.00,,,-99.99,,2013-03-13 00:22:00,
2013-03-12 19:33:00,29.0,21.0,-100.00,NNW,330,14.0,25.0,72,0.06,,,-99.99,,2013-03-13 00:33:00,
2013-03-12 19:42:00,29.0,21.0,-100.00,NW,325,14.0,29.0,74,0.00,,,-99.99,,2013-03-13 00:42:00,
2013-03-12 19:52:00,28.0,22.0,-100.00,NNW,330,12.0,21.0,76,0.00,,,-99.99,,2013-03-13 00:52:00,
2013-03-12 20:02:00,28.0,21.0,-100.00,NW,325,14.0,23.0,74,0.00,,,-99.99,,2013-03-13 01:02:00,
2013-03-12 20:12:00,28.0,21.0,-100.00,NW,320,16.0,23.0,75,0.00,,,-99.99,,2013-03-13 01:12:00,
2013-03-12 20:22:00,28.0,22.0,-100.00,NW,325,12.0,24.0,77,0.00,,,-99.99,,2013-03-13 01:22:00,
2013-03-12 20:32:00,28.0,22.0,-100.00,NNW,330,16.0,27.0,77,0.00,,,-99.99,,2013-03-13 01:32:00,
2013-03-12 20:42:00,28.0,22.0,-100.00,NNW,340,14.0,21.0,78,0.00,,,-99.99,,2013-03-13 01:42:00,
2013-03-12 20:52:00,28.0,22.0,-100.00,NNW,330,14.0,18.0,78,0.00,,,-99.99,,2013-03-13 01:52:00,
2013-03-12 21:02:00,27.0,22.0,-100.00,NNW,340,14.0,26.0,78,0.00,,,-99.99,,2013-03-13 02:02:00,
2013-03-12 21:12:00,27.0,22.0,-100.00,NNW,330,11.0,18.0,81,0.00,,,-99.99,,2013-03-13 02:12:00,
2013-03-12 21:22:00,27.0,22.0,-100.00,NNW,335,15.0,22.0,80,0.00,,,-99.99,,2013-03-13 02:22:00,
2013-03-12 21:32:00,27.0,23.0,-100.00,NNW,330,12.0,22.0,83,0.00,,,-99.99,,2013-03-13 02:32:00,
2013-03-12 21:43:00,27.0,23.0,-100.00,NW,325,12.0,20.0,84,0.00,,,-99.99,,2013-03-13 02:43:00,
2013-03-12 21:52:00,27.0,23.0,-100.00,NW,320,11.0,23.0,86,0.00,,,-99.99,,2013-03-13 02:52:00,
2013-03-12 22:02:00,27.0,23.0,-100.00,NW,320,11.0,23.0,86,0.00,,,-99.99,,2013-03-13 03:02:00,
2013-03-12 22:12:00,27.0,23.0,-100.00,NNW,330,12.0,22.0,84,0.00,,,-99.99,,2013-03-13 03:12:00,
2013-03-12 22:22:00,26.0,22.0,-100.00,NNW,330,11.0,24.0,83,0.00,,,-99.99,,2013-03-13 03:22:00,
2013-03-12 22:32:00,27.0,22.0,-100.00,NNW,330,10.0,20.0,83,0.00,,,-99.99,,2013-03-13 03:32:00,
2013-03-12 22:42:00,27.0,22.0,-100.00,NW,320,13.0,24.0,83,0.00,,,-99.99,,2013-03-13 03:42:00,
2013-03-12 22:52:00,27.0,22.0,-100.00,NW,320,14.0,22.0,82,0.00,,,-99.99,,2013-03-13 03:52:00,
2013-03-12 23:02:00,27.0,22.0,-100.00,NW,320,14.0,22.0,82,0.00,,,-99.99,,2013-03-13 04:02:00,
2013-03-12 23:13:00,27.0,23.0,-100.00,NW,325,14.0,20.0,82,0.00,,,-99.99,,2013-03-13 04:13:00,
2013-03-12 23:22:00,27.0,22.0,-100.00,NNW,330,13.0,20.0,82,0.00,,,-99.99,,2013-03-13 04:22:00,
2013-03-12 23:32:00,27.0,22.0,-100.00,NNW,340,16.0,26.0,78,0.00,,,-99.99,,2013-03-13 04:32:00,
2013-03-12 23:42:00,27.0,21.0,-100.00,NNW,340,17.0,28.0,78,0.00,,,-99.99,,2013-03-13 04:42:00,
2013-03-12 23:52:00,27.0,22.0,-100.00,NW,325,17.0,26.0,81,0.00,,,-99.99,,2013-03-13 04:52:00,